This is the latest recevied weather packets stored in our database for station/object WB6ANP. If no packets are shown the sender has not sent any weather packets the latest 10 day(s).
| Time | Temp. | Humidity | Pressure | Rain* | Wind** | Luminosity | Snow |
|---|---|---|---|---|---|---|---|
| 1777854764 | 23.33° C | 34% | 1015.1 hPa | 0 mm | - | 41 W/m² | - |
| 1777854460 | 23.89° C | 34% | 1015.2 hPa | 0 mm | - | 34 W/m² | - |
| 1777854157 | 23.89° C | 33% | 1015.1 hPa | 0 mm | - | 37 W/m² | - |
| 1777853855 | 24.44° C | 32% | 1015.1 hPa | 0 mm | - | 40 W/m² | - |
| 1777853552 | 25° C | 33% | 1015.1 hPa | 0 mm | - | 48 W/m² | - |
| 1777853248 | 25° C | 32% | 1015.1 hPa | 0 mm | - | 64 W/m² | - |
| 1777852945 | 25° C | 32% | 1015.1 hPa | 0 mm | - | 97 W/m² | - |
| 1777852644 | 25.56° C | 32% | 1015.2 hPa | 0 mm | - | 86 W/m² | - |
| 1777852340 | 26.11° C | 31% | 1015.4 hPa | 0 mm | - | 135 W/m² | - |
| 1777852038 | 26.67° C | 31% | 1015.4 hPa | 0 mm | - | 153 W/m² | - |
| 1777851736 | 26.11° C | 32% | 1015.3 hPa | 0 mm | - | 179 W/m² | - |
| 1777851433 | 26.11° C | 31% | 1015.4 hPa | 0 mm | - | 193 W/m² | - |
| 1777851128 | 26.67° C | 30% | 1015.3 hPa | 0 mm | - | 202 W/m² | - |
| 1777850825 | 26.11° C | 29% | 1015.6 hPa | 0 mm | - | 223 W/m² | - |
| 1777850523 | 26.67° C | 30% | 1015.4 hPa | 0 mm | - | 239 W/m² | - |
| 1777850221 | 26.67° C | 30% | 1015.3 hPa | 0 mm | - | 259 W/m² | - |
| 1777849917 | 26.67° C | 30% | 1015.4 hPa | 0 mm | - | 283 W/m² | - |
| 1777849614 | 26.67° C | 29% | 1015.6 hPa | 0 mm | - | 304 W/m² | - |
| 1777849311 | 27.22° C | 31% | 1015.6 hPa | 0 mm | - | 328 W/m² | - |
| 1777849008 | 26.67° C | 31% | 1015.7 hPa | 0 mm | - | 343 W/m² | - |
| 1777848708 | 26.11° C | 30% | 1015.8 hPa | 0 mm | - | 356 W/m² | - |
| 1777848406 | 26.67° C | 29% | 1015.7 hPa | 0 mm | - | 267 W/m² | - |
| 1777848103 | 26.67° C | 30% | 1015.8 hPa | 0 mm | - | 327 W/m² | - |
| 1777847801 | 26.67° C | 29% | 1015.9 hPa | 0 mm | - | 426 W/m² | - |
| 1777847497 | 26.67° C | 28% | 1015.9 hPa | 0 mm | - | 458 W/m² | - |
* Rain latest hour (hover to see other rain measurements)
** Current wind speed in m/s (hover to see current wind gust speed)